Regional Weather Roundup
Issued by NWS

Home | Current Version | Previous Version | Graphics & Text | Print | Product List | Glossary On
Versions: 1 2 3 4 5 6 7 8 9 10 11 12 13 14 15 16 17 18 19 20 21 22 23 24 25 26 27 28 29 30 31 32 33 34 35 36 37 38 39 40 41 42 43 44 45 46 47 48 49 50
000
ASUS43 KIND 261209
RWRIN

WEATHER ROUNDUP FOR INDIANA
NATIONAL WEATHER SERVICE INDIANAPOLIS IN
800 AM EDT MON OCT 26 2020

NOTE: "FAIR" INDICATES FEW OR NO CLOUDS BELOW 12,000 FEET WITH NO
SIGNIFICANT WEATHER AND/OR OBSTRUCTIONS TO VISIBILITY.

* - STATION DOES NOT REPORT WEATHER SUCH AS PRECIPITATION OR FOG.

+ - STATION NOT QUALITY CONTROLLED BY THE NATIONAL WEATHER SERVICE.
    USE DATA WITH CAUTION...ESPECIALLY DEWPOINT AND RELATIVE
    HUMIDITY OBSERVATIONS.

INZ001>003-010>013-019-020-261300-
NORTHWEST INDIANA

CITY           SKY/WX    TMP DP  RH WIND       PRES   REMARKS
KNOX *+        CLOUDY    41  36  81 N5        30.15S
LA PORTE +     DRIZZLE   40  38  92 NW3       30.16S
6HR MIN TEMP:  40; 6HR MAX TEMP:  42;

MICHIGAN CITY+ LGT RAIN  41  37  87 N8        30.17F
MONTICELLO +     N/A     43  36  76 NW8       30.14S
6HR MIN TEMP:  43; 6HR MAX TEMP:  44;

RENSSELAER +   CLOUDY    41  37  87 NW10G16   30.16F
VALPARAISO     LGT RAIN  41  37  86 CALM      30.16R
6HR MIN TEMP:  41; 6HR MAX TEMP:  44; 6HR PCP:  0.04;


$$

LMZ046-743>745-261300-
SOUTHERN LAKE MICHIGAN

STATION/POSITION TIME  TEMP    WIND        PRES    WAVE
                       AIR SEA DIR/SP/G            HT
                 (UTC) (F)     (DEG/KT/KT) (MB)    (FT)

$$

INZ004-005-014>016-021>024-261300-
NORTH CENTRAL INDIANA

CITY           SKY/WX    TMP DP  RH WIND       PRES   REMARKS
GOSHEN         CLOUDY    43  35  73 N10       30.14R
6HR MIN TEMP:  43; 6HR MAX TEMP:  44;

LOGANSPORT +   CLOUDY    43  36  75 CALM      30.14R
PERU/GRISSOM   CLOUDY    43  41  93 N7        30.12R
6HR MIN TEMP:  44; 6HR MAX TEMP:  44; 6HR PCP: TRACE;

PLYMOUTH *+    CLOUDY    43  36  75 CALM      30.15R
ROCHESTER +    CLOUDY    45  34  65 N6        30.15R
SOUTH BEND     CLOUDY    43  35  73 N8        30.16R
6HR MIN TEMP:  43; 6HR MAX TEMP:  44;

WARSAW +       CLOUDY    41  34  75 N7        30.14R

$$

INZ006>009-017-018-025>027-261300-
NORTHEAST INDIANA

CITY           SKY/WX    TMP DP  RH WIND       PRES   REMARKS
AUBURN +       CLOUDY    43  34  70 N3        30.12R
FORT WAYNE     CLOUDY    43  37  79 NW5       30.11R
6HR MIN TEMP:  43; 6HR MAX TEMP:  44;

HUNTINGTON +   CLOUDY    43  35  75 CALM      30.12R
6HR MIN TEMP:  42; 6HR MAX TEMP:  43;

KENDALLVILLE + CLOUDY    41  34  76 N7        30.13R

$$

INZ028-029-035-036-043>045-051>053-261300-
WEST CENTRAL INDIANA

CITY           SKY/WX    TMP DP  RH WIND       PRES   REMARKS
CRAWFORDSVL +  CLOUDY    40  38  93 CALM      30.15R
6HR MIN TEMP:  40; 6HR MAX TEMP:  42;

GREENCASTLE +  CLOUDY    44  42  93 NW7       30.13R
LAFAYETTE      CLOUDY    45  40  82 NW7       30.15R
6HR MIN TEMP:  44; 6HR MAX TEMP:  46;

TERRE HAUTE    CLOUDY    47  42  83 N7        30.15R
6HR MIN TEMP:  47; 6HR MAX TEMP:  48;


$$

INZ030>032-037>040-046>048-054>057-064-065-261300-
CENTRAL INDIANA

CITY           SKY/WX    TMP DP  RH WIND       PRES   REMARKS
ANDERSON +     CLOUDY    43  42  94 CALM      30.12S
6HR MIN TEMP:  43; 6HR MAX TEMP:  44;

COLUMBUS       CLOUDY    45  43  93 CALM      30.12S FOG
FRANKFORT +    CLOUDY    45  41  87 N6        30.15R
6HR MIN TEMP:  45; 6HR MAX TEMP:  46;

GREENWOOD *+   CLOUDY    44  42  93 CALM      30.11S
6HR MIN TEMP:  44; 6HR MAX TEMP:  45;

INDIANAPOLIS   CLOUDY    46  42  86 N5        30.12R
6HR MIN TEMP:  45; 6HR MAX TEMP:  46;

-EAGLE CREEK   CLOUDY    46  42  86 NW3       30.11S
6HR MIN TEMP:  45; 6HR MAX TEMP:  46;

KOKOMO +       CLOUDY    43  41  93 NW5       30.13R
6HR MIN TEMP:  43; 6HR MAX TEMP:  44; 6HR PCP: TRACE;

MARION +       CLOUDY    43  40  91 CALM      30.13S
MT COMFORT *+  CLOUDY    43  43 100 N3        30.11F
SHELBYVILLE    CLOUDY    48  43  82 NE3       30.10S
6HR MIN TEMP:  47; 6HR MAX TEMP:  49; 6HR PCP: TRACE;

ZIONSVILLE +   CLOUDY    42  38  84 N6        30.13R FOG
6HR MIN TEMP:  42; 6HR MAX TEMP:  43;


$$

INZ033-034-041-042-049-050-058-059-261300-
EAST CENTRAL INDIANA

CITY           SKY/WX    TMP DP  RH WIND       PRES   REMARKS
MUNCIE         CLOUDY    46  41  82 N3        30.11S
6HR MIN TEMP:  45; 6HR MAX TEMP:  46;

PORTLAND +     CLOUDY    43  41  93 CALM      30.10S
RICHMOND +     CLOUDY    43  43 100 CALM      30.11S

$$

INZ060-061-067>069-081>083-085>088-261300-
SOUTHWEST INDIANA

CITY           SKY/WX    TMP DP  RH WIND       PRES   REMARKS
EVANSVILLE     CLOUDY    48  44  86 NW5       30.15R
6HR MIN TEMP:  48; 6HR MAX TEMP:  50;

HUNTINGBURG +  CLOUDY    46  46 100 NW3       30.14R
WASHINGTON +   CLOUDY    47  46  99 N5        30.14R
6HR MIN TEMP:  46; 6HR MAX TEMP:  47;


$$

INZ062-063-066-070>080-084-089>092-261300-
SOUTH CENTRAL AND SOUTHEAST INDIANA

CITY           SKY/WX    TMP DP  RH WIND       PRES   REMARKS
BATESVILLE +   CLOUDY    45  45 100 CALM      30.10S
BEDFORD +      CLOUDY    46  45  93 CALM      30.12R FOG
BLOOMINGTON    CLOUDY    48  43  82 N3        30.12R
6HR MIN TEMP:  48; 6HR MAX TEMP:  49;

FRENCH LICK *+ CLOUDY    45 N/A N/A CALM      30.13R
MADISON *+     CLOUDY    46  46 100 CALM      30.13S
NORTH VERNON + CLOUDY    45  43  93 CALM      30.11S
SEYMOUR +      CLOUDY    50  50 100 CALM      30.11S

$$




USA.gov is the U.S. government's official web portal to all federal, state and local government web resources and services.